Content
SEND FEEDBACK

Daily
Averages
Monthly
Summary
United States of America

ASHEVILLE, NORTH CAROLINA


Home > North America > United States > North Carolina
Elevation: 2240 feet     Latitude: 35 36N     Longitude: 082 32W

WEATHER
 
SELECT A DAY
Number of Records: 230,245;   Date Range: 1/1/95 - 11/21/14
 
SHARE

PRINT THIS DATA

[ ← Previous Day ]
WEATHER ALMANAC - FEBRUARY 5, 2013
[ Next Day → ]
[ °C ]   °F
Weather ElementAverageHighLow
Temperature42.1 °F57 °F (3:54 pm)30 °F (5:54 am)
Dewpoint29.3 °F34 °F (12:54 pm)24.1 °F (1:54 am)
Humidity62.8 %85 % (11:54 pm)40 % (3:54 pm)
Barometer29.95 in30.01 in (11:54 pm)29.89 in (1:54 pm)
Wind Speed3.1 mph16.1 mph (11:54 am)
Wind Gust19.6 mph (11:54 am)
Weather ElementAverage
Visibility10 mi
Wind DirectionSE (133.5 °)

Weather ElementTotal
Precipitation---
Heating Degree Days21.5 (Base 65)
Averaged from 23 records on February 5, 2013
WEATHER CONDITIONS BREAKOUT
WIND DIRECTION BREAKOUT
WEATHER BY HOUR - FEBRUARY 5, 2013
[ °C ]   °F
Local TimeTemperatureDewpointHumidityBarometerVisibilityWind DirectionWind SpeedGust SpeedPrecipitationEventsConditions
1:54 AM35.1 °F24.1 °F64 %29.93 in10.0 miCalmClear
2:54 AM32.0 °F25.0 °F75 %29.92 in10.0 miCalmScattered Clouds
3:54 AM30.9 °F24.1 °F76 %29.91 in10.0 miCalmPartly Cloudy
4:54 AM32.0 °F25.0 °F75 %29.93 in10.0 miNorth (350°)3.5 mphMostly Cloudy
5:54 AM30.0 °F25.0 °F82 %29.93 in10.0 miCalmMostly Cloudy
6:54 AM30.9 °F26.1 °F82 %29.94 in10.0 miCalmMostly Cloudy
7:54 AM30.9 °F26.1 °F82 %29.96 in10.0 miCalmOvercast
8:54 AM37.9 °F26.1 °F62 %29.96 in10.0 miCalmScattered Clouds
9:54 AM46.0 °F27.0 °F47 %29.96 in10.0 miCalmMostly Cloudy
10:54 AM48.0 °F28.0 °F46 %29.96 in10.0 miCalmOvercast
11:54 AM50.0 °F32.0 °F50 %29.96 in10.0 miNorth (350°)16.1 mph19.6 mphMostly Cloudy
12:54 PM53.1 °F34.0 °F48 %29.93 in10.0 miNorth (350°)11.5 mphClear
1:54 PM55.9 °F33.1 °F42 %29.89 in10.0 miNNW (340°)5.8 mphClear
2:54 PM55.9 °F34.0 °F44 %29.91 in10.0 miNorth (350°)10.4 mphClear
3:54 PM57.0 °F33.1 °F40 %29.91 in10.0 miNorth (350°)6.9 mphClear
4:54 PM55.0 °F32.0 °F42 %29.92 in10.0 miWNW (300°)6.9 mphClear
5:54 PM51.1 °F33.1 °F50 %29.93 in10.0 miNNW (330°)5.8 mphClear
6:54 PM46.9 °F33.1 °F59 %29.96 in10.0 miNorth (350°)4.6 mphClear
7:54 PM45.0 °F32.0 °F60 %29.98 in10.0 miCalmClear
8:54 PM39.9 °F30.9 °F70 %29.99 in10.0 miCalmClear
9:54 PM36.0 °F30.9 °F82 %30.00 in10.0 miCalmClear
10:54 PM35.1 °F30.0 °F82 %30.00 in10.0 miCalmClear
11:54 PM33.1 °F28.9 °F85 %30.01 in10.0 miCalmClear
Hourly data recorded from KAVL, located miles away from Asheville, North Carolina







STORIES FROM OUR PARTNERS